[[{"header":{"parameterUnit":"m.s-1","parameterCategory":1,"la1":30.2992,"la2":30.254,"lo1":-89.0895,"lo2":-89.0443,"dy":0.0025,"dx":0.0025,"nx":19,"ny":19,"refTime":"2026-04-21T03:00:00:Z","depth":0,"parameterNumber":2,"parameterNumberName":"U-component_of_WINDS"},"data":[0,0,0,-2.9671,-2.9673,-2.9756,-2.9756,-2.9851,-2.9852,0,0,0,0,0,0,0,0,0,0,0,-2.9641,-2.9641,-2.9671,-2.9673,-2.9756,-2.9756,-2.9851,-2.9852,0,0,0,0,0,0,0,0,0,0,0,-2.9641,-2.9641,-2.9642,-2.9673,-2.9756,-2.9756,-2.9851,-2.9792,0,0,0,0,0,0,0,0,0,0,-2.9714,-2.968,-2.9641,-2.9642,-2.9674,-2.9756,-2.9756,-2.979,-2.9796,-2.9809,0,-2.982,0,-2.9837,-2.9858,-2.9858,0,0,0,-2.9678,-2.9675,-2.9702,-2.9642,-2.9675,-2.9755,-2.972,-2.9793,-2.98,-2.9818,-2.9822,-2.9825,-2.9839,-2.9858,-2.9859,-2.9921,-2.9921,0,0,-2.9673,-2.9653,-2.9697,-2.9707,-2.9693,-2.9717,-2.9722,-2.9798,-2.9801,-2.9822,-2.9828,-2.9841,-2.9859,-2.986,-2.9921,-2.9921,0,0,0,-2.9657,-2.9649,-2.9675,-2.9702,-2.9718,-2.9719,-2.9725,-2.9797,-2.9807,-2.9829,-2.9842,-2.9859,-2.986,-2.9921,-2.9921,-2.9904,0,0,0,-2.9654,-2.964,-2.9673,-2.9661,-2.9716,-2.9759,-2.9723,-2.9802,-2.9811,-2.9841,-2.9859,-2.9861,-2.992,-2.9921,-2.9904,-2.99,0,0,0,-2.9638,-2.9638,-2.9648,-2.966,-2.9695,-2.9758,-2.9773,-2.9805,-2.9819,-2.9858,-2.9862,-2.992,-2.9921,-2.9905,-2.99,-2.9909,0,0,0,-2.9614,-2.9633,-2.9647,-2.9673,-2.9694,-2.9747,-2.9773,-2.9813,-2.9845,-2.986,-2.992,-2.9921,-2.9905,-2.99,-2.9909,-2.9913,-2.9912,0,0,-2.9627,-2.9634,-2.9651,-2.9666,-2.9711,-2.9736,-2.9779,-2.9828,-2.985,-2.9896,-2.9898,-2.9904,-2.99,-2.9909,-2.9918,-2.9917,0,0,0,-2.9648,-2.9659,-2.9676,-2.9704,-2.9741,-2.9773,-2.9817,-2.9834,-2.9874,-2.987,-2.9911,-2.9909,-2.9915,-2.9918,-2.9917,-2.9923,-2.9921,-2.9921,-2.9921,-2.9637,-2.9663,-2.9693,-2.9729,-2.9756,-2.9801,-2.9825,-2.9857,-2.9877,-2.9886,-2.99,-2.9902,-2.9904,-2.9904,-2.991,-2.9904,-2.9904,-2.9904,-2.9904,-2.9657,-2.9677,-2.9702,-2.9739,-2.9767,-2.9799,-2.9842,-2.9854,-2.9888,-2.9894,-2.9901,-2.9905,-2.9903,-2.9909,-2.9903,-2.9903,-2.9903,-2.9903,-2.9904,-2.9652,-2.9667,-2.9687,-2.973,-2.976,-2.9797,-2.9827,-2.9852,-2.9875,-2.9882,-2.9899,-2.9899,-2.9902,-2.9888,-2.9888,-2.9888,-2.9888,-2.9888,-2.9888,-2.964,-2.9663,-2.9685,-2.9724,-2.9745,-2.9776,-2.9819,-2.984,-2.987,-2.9886,-2.9886,-2.9905,-2.9897,-2.9895,-2.9888,-2.9888,-2.9888,-2.9888,-2.9888,-2.965,-2.9651,-2.9685,-2.9705,-2.9753,-2.978,-2.9811,-2.9852,-2.9873,-2.9887,-2.9904,-2.9894,-2.9903,-2.9904,-2.9902,-2.9898,-2.9898,-2.9898,-2.9898,-2.9645,-2.9652,-2.9692,-2.9723,-2.9756,-2.9787,-2.9824,-2.9857,-2.9892,-2.9907,-2.9911,-2.991,-2.9909,-2.9919,-2.9919,-2.9918,-2.9918,-2.9918,-2.9918,-2.9653,-2.9663,-2.969,-2.9723,-2.9762,-2.9794,-2.9829,-2.9864,-2.9904,-2.992,-2.9918,-2.9917,-2.9917,-2.9915,-2.9931,-2.9931,-2.9929,0,0]},{"header":{"parameterUnit":"m.s-1","parameterCategory":1,"la1":30.2992,"la2":30.254,"lo1":-89.0895,"lo2":-89.0443,"dy":0.0025,"dx":0.0025,"nx":19,"ny":19,"refTime":"2026-04-21T03:00:00:Z","depth":0,"parameterNumber":3,"parameterNumberName":"V-component_of_WINDS"},"data":[0,0,0,5.2169,5.2172,5.2337,5.2338,5.2548,5.255,0,0,0,0,0,0,0,0,0,0,0,5.2121,5.2123,5.2168,5.2172,5.2337,5.2338,5.2548,5.255,0,0,0,0,0,0,0,0,0,0,0,5.212,5.2122,5.2124,5.2173,5.2337,5.2338,5.2548,5.2423,0,0,0,0,0,0,0,0,0,0,5.2262,5.2221,5.2122,5.2124,5.2174,5.2337,5.2338,5.2417,5.2431,5.2474,0,5.2515,0,5.2537,5.2565,5.2565,0,0,0,5.217,5.2209,5.2253,5.2125,5.2176,5.2337,5.2262,5.2424,5.244,5.2492,5.2518,5.2526,5.254,5.2566,5.2567,5.2833,5.2834,0,0,5.2161,5.2151,5.2242,5.2263,5.224,5.2257,5.2268,5.2434,5.246,5.2519,5.2531,5.2543,5.2567,5.2569,5.2831,5.2833,0,0,0,5.2136,5.2145,5.2184,5.2254,5.2284,5.2262,5.2274,5.2453,5.2467,5.2533,5.2546,5.2569,5.2571,5.283,5.2832,5.2891,0,0,0,5.2131,5.213,5.218,5.2175,5.2281,5.2371,5.2289,5.2455,5.2474,5.2545,5.2569,5.2573,5.2829,5.2831,5.2886,5.2919,0,0,0,5.211,5.2128,5.2153,5.2175,5.2246,5.2369,5.2392,5.246,5.2482,5.2566,5.2574,5.2828,5.2831,5.2882,5.2912,5.2988,0,0,0,5.2083,5.2199,5.2153,5.2288,5.2244,5.2404,5.2391,5.251,5.2588,5.257,5.2829,5.2832,5.288,5.2908,5.2984,5.3051,5.3078,0,0,5.2224,5.2216,5.2296,5.226,5.2426,5.238,5.2554,5.2633,5.2649,5.277,5.2777,5.2887,5.2912,5.2987,5.3231,5.3252,0,0,0,5.2337,5.2394,5.244,5.2517,5.2583,5.2642,5.2697,5.2727,5.2831,5.271,5.2935,5.295,5.2994,5.3027,5.3045,5.3085,5.2846,5.2846,5.2846,5.2519,5.2537,5.2671,5.2709,5.2782,5.284,5.2901,5.2951,5.2943,5.2996,5.3032,5.3178,5.3216,5.323,5.3271,5.3068,5.3068,5.3069,5.3069,5.2727,5.2812,5.2804,5.2931,5.2948,5.3054,5.3114,5.3106,5.3206,5.3151,5.3191,5.3131,5.3253,5.3289,5.3073,5.3073,5.3072,5.3072,5.3071,5.2849,5.2893,5.293,5.3045,5.313,5.3164,5.3263,5.3273,5.3283,5.3323,5.3363,5.3363,5.3364,5.3342,5.3342,5.3343,5.3343,5.3343,5.3344,5.2961,5.3002,5.3085,5.3168,5.322,5.329,5.335,5.3401,5.346,5.3459,5.346,5.3448,5.3262,5.3215,5.3352,5.335,5.3349,5.3349,5.3348,5.3167,5.3123,5.3252,5.3305,5.3404,5.349,5.3504,5.3607,5.365,5.3698,5.3679,5.354,5.3531,5.3516,5.3478,5.3674,5.3674,5.3674,5.3674,5.3271,5.3269,5.3405,5.3489,5.3572,5.3599,5.3743,5.3792,5.3835,5.3863,5.3836,5.3786,5.3771,5.3771,5.3751,5.3716,5.3968,5.3968,5.3968,5.3399,5.3406,5.3528,5.3573,5.3652,5.372,5.3857,5.3952,5.3991,5.3981,5.3885,5.3873,5.3792,5.3765,5.3751,5.372,5.3655,0,0]}]]